Temperature
21 22 22 23 23 22 21 20 20 21 21 21 21 21 21 22 22 22 22 22 23 23 22 22 22 22 22 21 21 21 21 20 20 20 19 19 19 19 19 18 18 18 18 18
21 21 22 22 22 22 22 21 21 21 21 20 21 21 21 21 21 21 22 22 23 23 22 22 22 22 21 21 21 21 20 20 20 20 19 19 19 19 19 18 18 18 18 18
20 20 22 22 22 22 22 21 21 21 21 20 20 20 20 21 21 22 23 23 23 23 23 23 22 22 22 21 21 20 20 20 20 20 19 19 19 19 18 18 18 18 18 18
17 21 21 21 21 21 21 21 21 21 20 20 20 21 21 22 22 22 23 23 23 23 23 22 22 21 21 21 21 20 20 20 20 19 19 19 19 19 19 18 18 18 18 18
16 18 20 21 21 21 21 21 20 20 19 20 20 20 20 22 22 23 23 23 23 22 22 22 22 21 21 21 20 20 20 20 20 19 19 19 19 18 18 18 18 18 18 17
15 19 19 20 21 21 21 20 20 19 19 19 19 19 19 22 22 22 22 22 22 22 22 21 21 21 21 20 20 20 20 19 19 19 19 18 18 18 18 18 18 17 17 17
16 18 18 19 19 20 21 20 20 19 19 19 19 20 21 21 21 22 22 22 22 22 21 21 21 21 20 20 20 20 19 19 19 19 18 18 18 18 17 17 17 17 17 17
14 17 18 18 18 18 18 19 19 19 20 19 20 20 21 21 21 21 21 21 21 21 21 21 21 20 20 20 20 19 19 19 18 18 18 18 17 17 17 17 17 16 16 16
14 16 16 17 17 18 19 19 19 19 20 20 20 20 20 20 21 21 21 21 21 21 20 20 20 20 20 19 19 19 18 18 18 18 18 17 17 17 17 16 16 16 16 16
14 15 15 17 18 19 19 19 19 20 20 20 19 19 19 20 20 20 20 20 20 20 20 20 20 19 19 19 19 18 18 18 18 18 17 17 17 16 16 16 16 16 16 16
14 14 15 17 18 18 19 19 19 19 19 19 19 19 19 19 19 19 19 19 19 19 19 19 19 19 19 18 18 18 18 17 17 17 17 17 16 16 16 16 15 15 15 15
14 15 14 16 17 18 18 19 19 19 19 19 19 19 19 19 19 19 19 18 19 19 18 18 18 18 18 18 17 17 17 17 17 16 16 16 16 16 16 15 15 15 15 15
16 17 17 17 17 17 18 18 18 18 18 18 18 18 18 18 18 18 18 18 18 18 18 17 17 17 17 17 17 17 16 16 16 16 16 16 15 15 15 15 15 15 14 14
17 16 16 16 17 17 17 17 18 18 18 18 18 18 18 18 18 18 17 17 17 17 17 17 17 17 17 16 16 16 16 16 16 15 15 15 15 15 15 15 14 14 14 14
16 16 16 16 16 17 17 17 17 17 17 17 17 17 17 17 17 17 17 17 16 16 16 16 16 16 16 16 16 16 15 15 15 15 15 15 14 14 14 14 14 14 14 14
16 16 16 16 16 16 16 16 16 16 17 17 17 16 16 16 16 16 16 16 16 16 16 16 16 16 16 15 15 15 15 15 15 15 14 14 14 14 14 14 14 13 13 13
15 15 15 15 16 16 16 16 16 16 16 16 16 16 16 16 16 16 15 15 15 15 15 15 15 15 15 15 15 15 15 14 14 14 14 14 13 14 13 13 13 13 13 13
16 16 16 15 15 15 15 15 15 15 15 15 15 15 15 15 15 15 15 15 15 15 14 14 14 14 15 15 14 14 14 14 14 13 13 13 13 13 13 13 12 12 13 13
15 15 15 15 15 15 15 15 15 15 15 15 15 15 14 14 14 14 14 14 14 14 14 14 14 14 14 14 14 13 13 13 13 13 13 13 13 13 12 12 12 12 12 12
14 14 14 14 15 14 14 14 14 14 14 14 14 14 14 14 14 14 14 14 14 14 14 14 13 13 13 13 13 13 13 13 13 13 12 12 12 12 12 12 12 12 12 12
14 14 14 14 14 14 14 14 14 14 14 14 14 14 14 14 14 13 13 13 14 13 13 13 13 13 13 13 13 13 13 13 13 12 12 12 12 12 12 12 12 11 11 11
14 14 14 14 13 13 13 13 13 13 13 13 13 13 13 13 13 13 13 13 13 13 13 13 13 13 12 12 12 12 12 12 12 12 12 12 12 12 11 11 11 11 11 11
13 13 13 13 13 13 13 13 13 13 13 13 13 13 13 13 13 13 13 13 13 13 13 12 12 12 12 12 12 12 12 12 12 12 12 12 11 11 11 11 11 11 11 11
13 13 13 13 13 13 13 13 12 12 13 13 13 13 13 13 13 13 12 13 12 12 12 12 12 12 12 12 12 12 12 12 12 11 11 11 11 11 11 11 10 10 10 10
12 12 12 12 12 12 12 12 12 12 12 12 12 12 12 12 12 12 12 12 12 12 12 12 12 12 11 11 11 11 11 11 11 11 11 11 11 10 10 10 10 10 10 10
12 12 12 12 12 12 12 12 12 12 12 12 12 12 12 12 12 12 12 11 11 11 11 11 11 11 11 11 11 11 11 11 11 10 10 10 10 10 10 10 10 9 9 9
12 12 12 12 12 12 12 12 12 12 12 12 12 12 11 11 11 11 11 11 11 11 11 11 11 11 11 11 11 11 11 10 10 10 10 10 10 9 9 9 9 9 9 9
Wind_Speed
3 3 3 4 4 6 6 8 8 8 8 8 7 6 5 4 4 4 4 5 6 6 5 5 5 4 4 4 4 4 4 4 4 3 3 2 3 3 3 3 3 3 2 3
1 1 1 1 3 5 5 5 5 4 7 6 3 2 3 4 5 6 5 6 5 5 5 5 5 6 5 5 4 4 5 5 4 3 3 3 3 3 2 2 2 2 2 3
2 3 3 3 5 6 5 5 7 7 8 3 2 3 5 5 5 6 6 6 5 6 5 5 6 6 7 6 5 5 4 4 3 3 3 3 3 2 3 3 2 2 2 2
3 3 5 8 4 4 4 3 4 4 4 4 5 3 2 3 5 5 4 4 5 5 4 4 4 5 5 5 5 5 4 4 3 3 3 3 3 3 3 2 3 3 3 3
5 4 5 6 2 3 4 3 2 3 2 2 3 3 2 1 3 5 5 4 4 4 4 3 4 5 5 5 5 5 5 4 4 4 4 4 4 4 3 2 2 2 2 3
5 5 7 8 3 1 4 3 3 2 3 3 5 2 4 2 2 2 2 3 3 3 3 3 3 4 5 5 5 5 6 6 5 5 5 5 5 4 3 3 3 3 3 3
5 4 7 6 4 1 4 6 3 2 3 4 4 5 3 1 2 2 2 2 3 4 4 3 3 4 4 4 5 6 4 3 4 4 5 5 4 3 3 3 3 2 3 3
5 4 7 3 2 4 5 3 1 1 2 2 3 1 1 2 2 2 2 2 3 4 3 2 3 4 4 4 5 3 3 3 4 5 5 4 4 4 4 4 3 3 3 4
7 6 4 2 2 3 2 2 1 2 1 3 2 1 1 1 1 2 2 2 2 3 2 2 3 4 5 5 3 3 3 4 4 4 4 4 5 5 3 3 3 3 4 4
1 4 3 3 2 2 1 1 1 1 2 4 3 2 2 1 1 1 1 1 2 2 2 2 3 4 4 3 2 3 3 4 3 4 4 4 4 4 4 4 4 4 4 5
1 3 3 3 2 2 2 2 3 3 2 2 3 2 2 2 1 1 1 1 1 2 2 3 3 3 3 3 3 3 3 3 3 4 4 4 4 5 6 6 6 6 6 6
6 6 4 4 4 1 1 1 0 1 2 1 1 2 1 2 1 1 1 0 0 1 2 3 3 3 3 3 4 4 4 3 3 3 3 4 4 4 5 6 7 9 9 8
6 4 4 4 3 2 1 1 1 0 1 1 1 2 2 2 1 1 1 1 2 3 3 3 3 4 4 3 4 5 5 5 4 4 4 4 4 5 4 4 5 7 9 9
4 2 1 3 3 2 1 1 1 1 1 0 1 1 2 1 1 2 3 3 3 3 3 3 3 5 5 4 4 5 5 5 5 4 4 4 5 5 5 4 4 4 6 9
4 4 5 3 2 2 1 1 1 2 1 1 1 1 2 2 2 3 3 2 2 2 3 3 4 5 4 3 4 5 5 4 4 4 4 4 4 4 5 5 5 5 4 4
3 2 3 2 3 2 1 1 2 3 3 2 2 3 4 3 3 3 3 2 3 4 4 4 5 6 4 4 4 4 5 6 5 4 4 5 5 5 5 5 5 5 6 5
4 3 3 3 4 4 4 4 4 4 4 4 4 4 3 2 2 3 4 4 4 5 5 5 6 5 4 4 4 4 4 5 6 5 5 5 6 6 6 5 6 6 6 6
6 6 6 5 5 4 4 4 4 4 5 5 5 4 4 5 6 6 5 3 3 4 5 6 5 5 4 4 4 4 4 4 5 5 5 5 6 6 5 6 6 6 5 5
3 4 4 4 5 5 4 5 5 5 5 4 4 5 6 6 6 6 5 4 4 6 7 6 6 5 5 5 5 4 5 5 5 5 5 6 6 6 6 6 6 6 5 5
1 1 2 2 2 3 3 4 4 4 4 4 4 4 5 6 5 5 4 5 6 6 6 6 5 5 5 5 5 4 5 5 6 5 5 5 6 6 6 6 6 6 6 5
1 1 1 1 2 2 3 3 3 4 5 4 4 5 6 6 5 4 4 6 7 6 6 6 5 5 4 4 5 4 4 5 5 5 5 5 6 6 6 6 6 6 5 5
1 1 1 1 1 2 3 3 3 4 4 4 5 5 5 5 5 4 6 6 7 6 5 4 4 5 5 5 4 4 4 5 5 4 5 5 5 5 6 6 6 5 5 5
1 1 1 1 2 3 3 3 4 4 4 5 5 5 5 5 4 4 6 5 5 6 5 4 5 6 6 4 4 4 4 5 5 5 5 4 4 5 5 5 5 4 4 4
1 1 1 2 1 2 4 5 5 4 4 5 5 5 5 4 4 5 5 6 6 6 4 5 6 6 5 4 4 4 5 5 4 4 3 3 4 4 4 4 4 3 3 4
1 1 1 1 2 3 4 4 4 4 4 4 5 5 4 3 4 4 3 3 4 4 3 4 6 6 4 3 4 4 4 4 3 3 3 3 3 3 3 3 3 3 3 4
1 2 2 3 3 3 3 2 2 3 3 3 4 4 3 2 2 2 2 2 3 3 3 3 3 4 3 3 3 3 3 2 2 3 3 3 3 3 3 3 3 3 3 3
1 1 2 2 2 2 2 2 3 3 3 3 3 4 3 2 2 2 2 2 3 3 3 3 2 2 2 2 2 2 1 1 1 1 1 2 1 1 2 2 2 2 2 2
Wind_Direction
205 216 182 195 192 178 178 182 184 219 221 243 236 223 215 188 168 160 166 171 177 180 180 171 168 170 167 168 166 166 166 189 208 204 193 201 214 216 214 213 222 223 226 239
9 347 157 240 230 197 197 185 200 214 249 251 239 187 177 180 174 181 186 188 189 184 175 176 181 178 172 174 168 163 178 198 198 187 189 203 217 218 220 229 238 228 227 233
224 310 54 265 235 205 201 200 179 204 229 216 181 199 204 197 190 193 193 187 182 186 187 188 193 185 180 178 159 161 178 185 186 185 201 216 214 203 215 221 212 228 235 231
140 106 211 244 256 183 181 234 221 214 218 200 195 194 205 189 184 191 191 184 188 187 185 188 183 177 168 154 156 168 182 187 186 192 208 208 196 203 211 211 213 223 233 236
134 171 260 285 262 164 171 259 260 212 217 184 139 66 355 259 191 195 188 180 184 183 178 168 171 170 153 156 167 178 195 201 201 197 197 195 203 213 210 206 222 224 233 238
134 158 218 237 268 265 132 252 274 211 187 156 122 140 252 252 183 170 154 152 152 148 136 147 171 158 154 173 182 202 211 211 208 200 198 204 212 214 205 203 220 224 241 247
152 190 249 254 294 97 164 234 277 224 190 164 177 209 226 181 157 160 147 150 143 138 150 173 163 149 162 179 209 221 216 209 207 206 208 209 210 210 202 199 209 227 247 259
146 175 243 295 73 164 216 258 239 214 197 184 208 184 85 125 145 136 116 126 140 144 166 178 155 154 172 209 226 212 197 205 216 217 213 208 203 211 205 198 207 230 247 268
183 207 252 288 229 242 201 207 223 193 205 161 143 126 65 87 132 132 140 145 145 157 171 174 172 175 196 223 214 195 197 212 221 219 215 206 202 207 209 209 219 235 243 259
232 277 287 296 313 336 339 211 201 148 131 126 127 139 128 131 131 116 125 124 134 149 169 207 207 208 218 226 196 186 202 218 221 217 221 216 212 211 213 220 228 235 241 251
240 271 326 325 322 308 352 39 55 54 74 121 125 143 164 171 187 175 114 97 131 172 208 235 231 230 230 205 181 194 214 219 220 218 219 222 224 223 220 224 222 224 232 235
216 220 196 246 272 295 72 27 88 63 4 3 136 172 182 190 200 165 163 153 147 241 247 256 247 248 243 211 189 195 216 224 223 222 224 229 232 246 240 235 237 231 229 229
217 219 209 235 270 296 261 294 319 95 223 272 283 174 182 195 194 201 223 229 231 243 248 252 250 253 251 227 205 205 216 222 224 221 226 228 233 238 256 269 262 250 245 241
206 178 237 255 259 279 283 333 354 343 332 268 265 233 184 185 214 223 240 246 243 242 246 247 250 258 257 233 215 220 224 226 226 227 228 229 234 239 242 248 261 265 255 248
234 212 213 228 266 301 314 358 31 322 310 331 323 253 209 207 233 252 257 252 241 246 253 254 258 264 261 238 226 229 230 232 230 232 231 234 236 238 241 244 250 260 266 262
208 189 195 207 233 249 250 221 215 257 262 251 241 237 234 224 232 253 263 238 223 246 253 248 255 262 255 238 233 235 238 239 231 230 232 234 234 235 238 241 247 254 257 258
184 212 210 210 229 235 235 227 220 232 243 240 237 232 228 227 248 261 266 258 241 247 251 247 253 259 248 232 231 238 239 238 233 234 235 235 235 234 236 237 242 249 254 251
206 215 210 200 213 229 245 246 241 239 240 243 239 230 232 232 238 248 256 261 268 275 269 262 260 262 254 243 239 241 239 240 237 237 238 236 237 235 234 237 241 247 255 253
202 212 221 221 220 221 233 245 248 249 246 241 233 236 243 245 243 245 246 242 248 261 267 260 256 254 256 250 237 235 239 244 247 245 242 239 241 241 237 239 244 246 248 247
298 243 233 245 240 227 237 251 255 265 266 256 246 247 257 262 257 248 245 252 250 246 251 255 257 255 254 255 245 238 240 244 248 250 248 245 246 247 244 244 245 247 246 245
266 253 239 246 267 270 257 254 258 269 274 262 244 245 253 264 263 248 243 260 266 256 252 252 250 249 249 253 251 248 249 248 245 244 246 248 250 250 248 246 245 245 245 246
251 239 247 249 255 281 280 272 267 272 279 273 259 254 256 266 267 264 253 249 260 261 256 251 249 248 251 257 250 246 245 245 244 245 247 250 250 252 253 250 247 245 243 241
274 256 262 263 255 269 293 296 287 283 281 277 271 264 259 257 249 247 269 264 257 259 256 253 250 252 256 252 247 245 243 245 247 247 247 247 248 249 248 248 246 243 242 242
281 266 266 274 283 299 299 295 295 287 281 283 278 267 258 262 268 255 250 266 268 266 264 258 252 252 250 245 246 248 247 245 245 247 247 247 244 245 242 239 241 243 242 245
264 264 276 285 285 277 277 289 307 309 307 305 300 293 277 246 242 261 268 269 270 271 273 264 255 254 250 249 249 250 246 240 238 238 238 238 239 240 238 236 237 240 243 244
259 259 258 251 251 260 269 279 289 295 300 304 308 311 313 308 285 277 282 283 285 281 276 274 268 262 257 254 258 260 251 238 239 242 241 241 236 233 236 243 250 252 254 255
306 302 297 302 296 275 270 275 279 290 289 286 297 308 309 308 309 312 314 310 307 304 298 286 278 272 270 269 268 261 240 227 236 231 232 240 235 234 241 250 259 262 267 267
Height
1495 1492 1492 1492 1494 1497 1500 1506 1513 1507 1504 1493 1488 1487 1487 1488 1490 1491 1492 1493 1495 1497 1499 1502 1504 1506 1508 1510 1512 1514 1516 1517 1518 1519 1520 1520 1520 1521 1521 1521 1521 1521 1521 1522
1495 1491 1491 1493 1491 1493 1494 1496 1499 1498 1497 1486 1485 1486 1487 1487 1488 1489 1490 1492 1494 1495 1498 1500 1502 1504 1506 1508 1510 1512 1514 1515 1516 1517 1517 1518 1518 1519 1519 1519 1519 1519 1518 1519
1504 1496 1493 1501 1491 1490 1491 1489 1492 1495 1489 1484 1485 1485 1485 1486 1487 1487 1489 1490 1492 1493 1495 1498 1501 1503 1504 1507 1509 1510 1512 1513 1513 1514 1515 1516 1516 1517 1517 1517 1517 1516 1516 1516
1507 1502 1511 1497 1482 1483 1486 1485 1484 1483 1482 1482 1482 1483 1483 1484 1485 1486 1488 1489 1491 1493 1494 1497 1499 1501 1503 1505 1507 1508 1509 1510 1511 1512 1512 1513 1514 1514 1514 1514 1514 1513 1514 1514
1512 1511 1505 1491 1481 1482 1486 1487 1482 1482 1481 1481 1481 1483 1484 1484 1485 1486 1487 1489 1491 1492 1494 1496 1498 1499 1501 1503 1504 1505 1506 1507 1508 1509 1510 1511 1511 1511 1511 1511 1511 1510 1511 1511
1509 1509 1511 1491 1478 1478 1482 1489 1480 1480 1480 1481 1481 1488 1485 1483 1484 1485 1487 1488 1490 1492 1493 1495 1496 1498 1499 1500 1502 1502 1503 1504 1506 1507 1507 1507 1508 1508 1508 1508 1507 1507 1508 1507
1504 1504 1497 1481 1477 1478 1493 1489 1479 1478 1478 1479 1480 1482 1481 1481 1483 1484 1486 1488 1489 1491 1492 1493 1494 1496 1497 1497 1498 1499 1501 1502 1503 1503 1503 1504 1505 1504 1504 1504 1504 1504 1504 1503
1504 1504 1498 1478 1477 1482 1483 1477 1477 1477 1478 1478 1478 1479 1480 1480 1481 1483 1485 1486 1488 1489 1490 1491 1492 1493 1494 1494 1496 1497 1498 1498 1499 1499 1500 1500 1500 1500 1500 1500 1500 1499 1499 1499
1491 1491 1481 1478 1478 1477 1477 1476 1476 1476 1477 1477 1478 1479 1479 1480 1481 1482 1483 1485 1486 1487 1488 1489 1490 1491 1491 1492 1493 1494 1494 1494 1495 1495 1495 1496 1496 1495 1495 1495 1495 1494 1494 1494
1485 1481 1478 1477 1476 1476 1476 1475 1475 1476 1476 1476 1477 1478 1479 1480 1481 1482 1482 1483 1484 1485 1486 1487 1488 1488 1488 1489 1490 1490 1490 1491 1491 1491 1491 1491 1491 1491 1490 1490 1490 1490 1489 1489
1482 1479 1477 1476 1476 1475 1475 1475 1475 1475 1476 1476 1477 1477 1478 1479 1480 1481 1481 1482 1482 1483 1483 1484 1485 1485 1486 1486 1486 1486 1486 1486 1486 1486 1486 1486 1486 1486 1486 1486 1487 1486 1485 1485
1479 1476 1476 1475 1475 1475 1475 1474 1475 1475 1475 1476 1476 1477 1477 1478 1479 1479 1480 1481 1481 1481 1482 1482 1482 1482 1483 1483 1482 1482 1482 1482 1482 1482 1482 1482 1482 1482 1481 1482 1482 1482 1482 1481
1471 1472 1473 1473 1474 1474 1474 1474 1474 1474 1475 1475 1475 1476 1476 1476 1477 1478 1478 1479 1479 1479 1479 1479 1479 1479 1479 1479 1479 1479 1478 1478 1478 1478 1478 1477 1477 1477 1476 1476 1476 1476 1476 1476
1469 1471 1471 1471 1471 1472 1472 1472 1473 1473 1473 1474 1474 1474 1474 1474 1475 1475 1475 1476 1476 1476 1476 1475 1475 1475 1475 1475 1475 1475 1474 1474 1474 1473 1473 1473 1473 1472 1472 1471 1471 1471 1471 1471
1467 1468 1469 1469 1470 1470 1471 1471 1471 1471 1471 1471 1472 1472 1473 1473 1472 1472 1472 1472 1472 1472 1472 1471 1471 1471 1471 1471 1470 1470 1470 1470 1470 1469 1469 1468 1468 1468 1467 1467 1466 1466 1465 1465
1464 1466 1467 1467 1468 1468 1469 1469 1469 1469 1469 1469 1470 1470 1470 1470 1470 1469 1469 1469 1468 1468 1467 1467 1467 1467 1467 1467 1466 1466 1466 1466 1465 1465 1464 1463 1463 1463 1462 1462 1461 1461 1460 1460
1462 1463 1463 1464 1465 1466 1466 1467 1467 1467 1467 1467 1467 1467 1467 1467 1466 1465 1465 1465 1464 1464 1464 1463 1463 1463 1463 1462 1462 1462 1462 1461 1461 1460 1459 1459 1458 1457 1457 1456 1456 1455 1455 1455
1460 1460 1461 1461 1462 1463 1463 1464 1464 1464 1464 1464 1464 1464 1463 1463 1462 1461 1461 1461 1460 1460 1459 1459 1458 1458 1458 1457 1457 1457 1457 1456 1456 1455 1454 1454 1453 1452 1452 1451 1450 1450 1449 1450
1457 1458 1459 1459 1460 1460 1461 1461 1461 1461 1461 1460 1460 1459 1459 1458 1457 1457 1457 1456 1456 1455 1454 1454 1454 1454 1453 1453 1452 1452 1452 1451 1450 1450 1449 1448 1448 1447 1446 1446 1445 1445 1445 1444
1455 1456 1456 1456 1457 1457 1457 1457 1457 1457 1457 1456 1456 1455 1454 1453 1453 1452 1452 1451 1451 1450 1450 1449 1449 1448 1448 1447 1447 1447 1446 1445 1444 1443 1443 1443 1442 1441 1440 1440 1440 1440 1439 1439
1453 1453 1454 1454 1454 1455 1455 1454 1454 1453 1453 1452 1451 1450 1449 1449 1448 1448 1447 1446 1446 1446 1445 1444 1443 1443 1442 1442 1441 1441 1440 1439 1438 1438 1437 1437 1436 1435 1435 1434 1434 1433 1433 1433
1451 1451 1452 1452 1452 1452 1452 1452 1451 1450 1449 1448 1447 1446 1445 1444 1444 1443 1442 1442 1441 1440 1439 1438 1437 1437 1437 1437 1436 1436 1435 1434 1433 1433 1432 1431 1430 1429 1429 1428 1428 1427 1427 1428
1450 1450 1450 1451 1451 1451 1450 1449 1448 1447 1446 1445 1444 1442 1441 1440 1439 1438 1437 1437 1436 1435 1434 1433 1433 1432 1432 1432 1431 1430 1430 1429 1428 1427 1426 1426 1425 1424 1424 1423 1423 1422 1422 1422
1449 1449 1449 1449 1449 1449 1448 1447 1446 1444 1443 1442 1440 1439 1438 1436 1435 1434 1433 1432 1431 1430 1429 1429 1428 1428 1427 1427 1426 1425 1425 1424 1423 1422 1421 1421 1420 1420 1419 1418 1418 1418 1418 1418
1448 1448 1448 1448 1447 1446 1445 1444 1443 1441 1440 1439 1437 1436 1434 1433 1432 1430 1429 1428 1427 1426 1425 1425 1424 1423 1423 1422 1421 1421 1420 1419 1418 1417 1417 1416 1415 1414 1414 1414 1414 1414 1413 1413
1447 1447 1447 1446 1446 1445 1444 1442 1440 1439 1437 1436 1434 1433 1431 1430 1428 1427 1426 1425 1423 1422 1421 1421 1420 1419 1419 1418 1417 1416 1415 1414 1414 1413 1412 1411 1410 1410 1410 1410 1410 1409 1409 1409
1445 1445 1445 1444 1444 1443 1442 1440 1439 1437 1435 1433 1432 1430 1429 1427 1426 1424 1423 1422 1420 1419 1418 1417 1417 1416 1415 1414 1413 1412 1412 1411 1410 1409 1408 1408 1407 1407 1407 1406 1406 1406 1406 1405